Hourly Weather Roundup
Issued by NWS Central Illinois

Home | Current Version | Previous Version | Text Only | Print | Product List | Glossary On
Versions: 1 2 3 4 5 6 7 8 9 10 11 12 13 14 15 16 17 18 19 20 21 22 23 24 25 26 27 28 29 30 31 32 33 34 35 36 37 38 39 40 41 42 43 44 45 46 47 48 49 50
000
NZUS43 KILX 190810
HWRILX

Area Weather Roundup
National Weather Service Lincoln IL
300 AM CDT SAT AUG 19 2017

NOTE:  "FAIR" indicates few or no clouds below 12,000 feet, with
       no sigificant weather and/or obstructions to visibility.


CITY           SKY/WX    TMP DP  RH WIND       PRES   REMARKS
Bloomington    CLEAR     66  63  90 CALM      29.92R
Champaign      CLOUDY    65  62  90 S3        29.90R
Danville       CLOUDY    65  63  93 CALM      29.88R
Decatur        CLEAR     70  64  81 SW8       29.90R
Effingham      PTCLDY    68  68 100 CALM      29.93S
Flora          CLOUDY    70  67  90 SW5       29.92S
Galesburg      MOCLDY    64  62  90 NE7       29.92F
Jacksonville   CLEAR     67  64  90 SW5       29.90S
Lacon          PTCLDY    66  62  87 CALM      29.90S
Lawrenceville  MOCLDY    70  67  90 SW3       29.92S
Litchfield     MOCLDY    66  64  96 S5        29.91F
$$


CITY           SKY/WX    TMP DP  RH WIND       PRES   REMARKS
Lincoln        CLEAR     65  65 100 CALM      29.91R FOG
Macomb         CLOUDY    63  63  99 N3        29.92S
Mattoon        PTCLDY    71  67  87 SW6       29.89S
Mt Carmel AP   CLOUDY    69  66  89 CALM      29.92R
Olney-Noble AP MOCLDY    69  67  93 CALM      29.93S
Paris AP       CLOUDY    67  65  94 CALM      29.91S
Peoria         PTCLDY    67  66  97 NE5       29.90S
Pontiac        PTCLDY    63  63  98 CALM      29.92R
Rantoul        CLOUDY    68  66  94 W5        29.90S
Robinson       PTCLDY    67  65  96 CALM      29.92S
Springfield    CLEAR     69  66  90 S5        29.90R
Taylorville    CLEAR     66  65  97 SW5       29.91S
$$

...REGIONAL REPORTS...


CITY           SKY/WX    TMP DP  RH WIND       PRES   REMARKS
Chicago O`Hare PTCLDY    67  59  75 NW8       29.90R
Kankakee       CLOUDY    68  64  88 N5        29.91R
Moline         LGT RAIN  66  61  84 NE6       29.91S
Mount Sterling CLEAR     66  63  90 SW6       29.90R
Mount Vernon     N/A     73  67  81 CALM      29.93R
Pittsfield     CLEAR     72  69  89 SW5       29.91S
Quincy         PTCLDY    69  65  86 W5        29.90R
Rockford       PTCLDY    62  59  90 N3        29.93F
$$


CITY           SKY/WX    TMP DP  RH WIND       PRES   REMARKS
Burlington     CLOUDY    68  65  90 NE7       29.91R
Cedar Rapids   LGT RAIN  62  62 100 NE5       29.93R FOG
Des Moines     MOCLDY    69  63  81 E7        29.91R
Kirksville     CLOUDY    65  64  97 CALM      29.93S FOG
Ottumwa        CLOUDY    67  64  90 E8        29.92R
St Louis       PTCLDY    75  68  78 SW5       29.92S
$$


CITY           SKY/WX    TMP DP  RH WIND       PRES   REMARKS
Terre Haute    PTCLDY    65  62  90 CALM      29.92R
Evansville     PTCLDY    72  66  81 CALM      29.92S
Indianapolis   MOCLDY    70  63  78 VRB3      29.89F
Lafayette      CLOUDY    66  61  84 CALM      29.89R
Madison        PTCLDY    60  59  96 CALM      29.91S
Milwaukee      MOCLDY    67  62  84 NW6       29.89F
$$






USA.gov is the U.S. government's official web portal to all federal, state and local government web resources and services.